Previsão horária em Jumprava

Hoje, 24 Junho, Quinta-feira

Tempo Temperatura Precipitação Vento Pressão Humidade
00:00 +21°C° 0.8 mm 1 m/s 757 mmHg 94%
01:00 +21°C° 0.8 mm 1 m/s 757 mmHg 95%
02:00 +21°C° 0.8 mm 1 m/s 757 mmHg 97%
03:00 +21°C° 0 mm 1 m/s 757 mmHg 97%
04:00 +21°C° 0 mm 1 m/s 757 mmHg 97%
05:00 +21°C° 0 mm 1 m/s 757 mmHg 97%
06:00 +22°C° 0.1 mm 1 m/s 757 mmHg 93%
07:00 +23°C° 0.1 mm 1 m/s 757 mmHg 89%
08:00 +24°C° 0.1 mm 1 m/s 757 mmHg 86%
09:00 +25°C° 0 mm 1 m/s 757 mmHg 77%
10:00 +27°C° 0 mm 1 m/s 757 mmHg 68%
11:00 +29°C° 0 mm 1 m/s 757 mmHg 59%
12:00 +30°C° 0 mm 1 m/s 756 mmHg 56%
13:00 +31°C° 0 mm 1 m/s 756 mmHg 53%
14:00 +31°C° 0 mm 2 m/s 756 mmHg 50%
15:00 +31°C° 0 mm 2 m/s 756 mmHg 52%
16:00 +31°C° 0 mm 2 m/s 755 mmHg 54%
17:00 +30°C° 0 mm 2 m/s 755 mmHg 55%
18:00 +28°C° 0.1 mm 2 m/s 755 mmHg 65%
19:00 +27°C° 0.1 mm 2 m/s 755 mmHg 75%
20:00 +25°C° 0.1 mm 2 m/s 754 mmHg 85%
21:00 +23°C° 0.1 mm 2 m/s 754 mmHg 88%
22:00 +21°C° 0.1 mm 2 m/s 754 mmHg 90%
23:00 +21°C° 0.1 mm 1 m/s 754 mmHg 93%

Amanhã, 25 Junho, Sexta-feira

Tempo Temperatura Precipitação Vento Pressão Humidade
00:00 +21°C° 0.1 mm 1 m/s 754 mmHg 95%
01:00 +20°C° 0.1 mm 1 m/s 754 mmHg 96%
02:00 +19°C° 0.1 mm 2 m/s 753 mmHg 97%
03:00 +20°C° 0.5 mm 1 m/s 753 mmHg 97%
04:00 +21°C° 0.5 mm 1 m/s 753 mmHg 97%
05:00 +21°C° 0.5 mm 1 m/s 752 mmHg 97%
06:00 +22°C° 0 mm 1 m/s 752 mmHg 95%
07:00 +23°C° 0 mm 1 m/s 753 mmHg 92%
08:00 +24°C° 0 mm 1 m/s 753 mmHg 89%
09:00 +26°C° 0.1 mm 1 m/s 753 mmHg 78%
10:00 +28°C° 0.1 mm 1 m/s 753 mmHg 68%
11:00 +30°C° 0.1 mm 1 m/s 753 mmHg 57%
12:00 +30°C° 0.1 mm 2 m/s 752 mmHg 56%
13:00 +31°C° 0.1 mm 2 m/s 752 mmHg 55%
14:00 +31°C° 0.1 mm 3 m/s 752 mmHg 54%
15:00 +31°C° 0.1 mm 3 m/s 752 mmHg 54%
16:00 +31°C° 0.1 mm 3 m/s 751 mmHg 55%
17:00 +32°C° 0.1 mm 4 m/s 751 mmHg 55%
18:00 +29°C° 0 mm 3 m/s 751 mmHg 64%
19:00 +28°C° 0 mm 2 m/s 751 mmHg 72%
20:00 +26°C° 0 mm 1 m/s 751 mmHg 81%
21:00 +25°C° 0.2 mm 1 m/s 751 mmHg 86%
22:00 +23°C° 0.2 mm 1 m/s 752 mmHg 91%
23:00 +22°C° 0.2 mm 1 m/s 752 mmHg 96%

Depois de amanhã, 26 Junho, Sábado

Tempo Temperatura Precipitação Vento Pressão Humidade
00:00 +20°C° 0.5 mm 2 m/s 752 mmHg 97%
01:00 +20°C° 0.5 mm 2 m/s 752 mmHg 97%
02:00 +19°C° 0.5 mm 3 m/s 752 mmHg 98%
03:00 +19°C° 0.2 mm 3 m/s 752 mmHg 98%
04:00 +18°C° 0.2 mm 2 m/s 753 mmHg 98%
05:00 +18°C° 0.2 mm 2 m/s 753 mmHg 98%
06:00 +18°C° 0 mm 2 m/s 753 mmHg 93%
07:00 +19°C° 0 mm 3 m/s 753 mmHg 89%
08:00 +20°C° 0 mm 3 m/s 754 mmHg 85%
09:00 +20°C° 0 mm 3 m/s 754 mmHg 78%
10:00 +21°C° 0 mm 3 m/s 754 mmHg 71%
11:00 +22°C° 0 mm 3 m/s 754 mmHg 65%
12:00 +24°C° 0 mm 3 m/s 754 mmHg 62%
13:00 +24°C° 0 mm 3 m/s 754 mmHg 59%
14:00 +25°C° 0 mm 3 m/s 754 mmHg 57%
15:00 +25°C° 0 mm 3 m/s 754 mmHg 59%
16:00 +25°C° 0 mm 3 m/s 754 mmHg 61%
17:00 +25°C° 0 mm 3 m/s 754 mmHg 64%
18:00 +24°C° 0.1 mm 3 m/s 754 mmHg 69%
19:00 +22°C° 0.1 mm 3 m/s 754 mmHg 74%
20:00 +21°C° 0.1 mm 2 m/s 754 mmHg 80%
21:00 +19°C° 0 mm 2 m/s 755 mmHg 85%
22:00 +18°C° 0 mm 2 m/s 755 mmHg 91%
23:00 +16°C° 0 mm 2 m/s 755 mmHg 96%

27 Junho, Domingo

Tempo Temperatura Precipitação Vento Pressão Humidade
00:00 +16°C° 0 mm 2 m/s 755 mmHg 97%
01:00 +15°C° 0 mm 1 m/s 755 mmHg 97%
02:00 +15°C° 0 mm 1 m/s 755 mmHg 98%
03:00 +15°C° 0 mm 1 m/s 755 mmHg 98%
04:00 +15°C° 0 mm 1 m/s 755 mmHg 98%
05:00 +15°C° 0 mm 2 m/s 756 mmHg 98%
06:00 +16°C° 0 mm 2 m/s 756 mmHg 90%
07:00 +18°C° 0 mm 2 m/s 756 mmHg 82%
08:00 +20°C° 0 mm 2 m/s 756 mmHg 74%
09:00 +20°C° 0 mm 2 m/s 756 mmHg 69%
10:00 +21°C° 0 mm 3 m/s 756 mmHg 65%
11:00 +22°C° 0 mm 3 m/s 756 mmHg 60%
12:00 +22°C° 0 mm 3 m/s 756 mmHg 61%
13:00 +22°C° 0 mm 3 m/s 756 mmHg 61%
14:00 +23°C° 0 mm 2 m/s 756 mmHg 62%
15:00 +24°C° 0.1 mm 2 m/s 756 mmHg 63%
16:00 +24°C° 0.1 mm 2 m/s 756 mmHg 64%
17:00 +24°C° 0.1 mm 1 m/s 755 mmHg 65%
18:00 +23°C° 0.1 mm 1 m/s 755 mmHg 71%
19:00 +22°C° 0.1 mm 1 m/s 755 mmHg 76%
20:00 +21°C° 0.1 mm 1 m/s 755 mmHg 82%
21:00 +20°C° 0 mm 1 m/s 756 mmHg 86%
22:00 +19°C° 0 mm 1 m/s 756 mmHg 90%
23:00 +16°C° 0 mm 1 m/s 756 mmHg 93%

28 Junho, Segunda-feira

Tempo Temperatura Precipitação Vento Pressão Humidade
00:00 +16°C° 0 mm 1 m/s 756 mmHg 94%
01:00 +16°C° 0 mm 1 m/s 756 mmHg 95%
02:00 +15°C° 0 mm 1 m/s 756 mmHg 96%
03:00 +15°C° 0 mm 1 m/s 756 mmHg 95%
04:00 +15°C° 0 mm 1 m/s 756 mmHg 95%
05:00 +15°C° 0 mm 1 m/s 756 mmHg 94%
06:00 +18°C° 0 mm 1 m/s 757 mmHg 85%
07:00 +20°C° 0 mm 1 m/s 757 mmHg 77%
08:00 +20°C° 0 mm 2 m/s 757 mmHg 68%
09:00 +23°C° 0 mm 2 m/s 757 mmHg 62%
10:00 +24°C° 0 mm 2 m/s 757 mmHg 57%
11:00 +25°C° 0 mm 2 m/s 757 mmHg 51%
12:00 +26°C° 0 mm 2 m/s 757 mmHg 51%
13:00 +26°C° 0 mm 2 m/s 756 mmHg 51%
14:00 +27°C° 0 mm 2 m/s 756 mmHg 51%
15:00 +26°C° 0 mm 2 m/s 756 mmHg 55%
16:00 +25°C° 0 mm 1 m/s 756 mmHg 60%
17:00 +24°C° 0 mm 1 m/s 756 mmHg 65%
18:00 +24°C° 0.1 mm 1 m/s 756 mmHg 69%
19:00 +23°C° 0.1 mm 1 m/s 756 mmHg 74%
20:00 +22°C° 0.1 mm 1 m/s 756 mmHg 79%
21:00 +21°C° 0.1 mm 1 m/s 756 mmHg 81%
22:00 +19°C° 0.1 mm 1 m/s 756 mmHg 84%
23:00 +18°C° 0.1 mm 1 m/s 756 mmHg 86%

29 Junho, Terça-feira

Tempo Temperatura Precipitação Vento Pressão Humidade
00:00 +16°C° 0 mm 1 m/s 756 mmHg 86%
01:00 +16°C° 0 mm 1 m/s 756 mmHg 85%
02:00 +15°C° 0 mm 1 m/s 756 mmHg 85%
03:00 +15°C° 0 mm 1 m/s 756 mmHg 85%
04:00 +14°C° 0 mm 0 m/s 756 mmHg 85%
05:00 +15°C° 0 mm 0 m/s 757 mmHg 85%
06:00 +17°C° 0 mm 0 m/s 757 mmHg 77%
07:00 +21°C° 0 mm 1 m/s 757 mmHg 70%
08:00 +23°C° 0 mm 1 m/s 757 mmHg 63%
09:00 +24°C° 0 mm 2 m/s 757 mmHg 57%
10:00 +26°C° 0 mm 2 m/s 756 mmHg 51%
11:00 +27°C° 0 mm 3 m/s 756 mmHg 46%
12:00 +28°C° 0 mm 3 m/s 756 mmHg 44%
13:00 +29°C° 0 mm 3 m/s 756 mmHg 42%
14:00 +29°C° 0 mm 3 m/s 756 mmHg 40%
15:00 +28°C° 0 mm 3 m/s 755 mmHg 46%
16:00 +27°C° 0 mm 3 m/s 755 mmHg 52%
17:00 +26°C° 0 mm 3 m/s 755 mmHg 59%
18:00 +25°C° 0.3 mm 3 m/s 755 mmHg 68%
19:00 +24°C° 0.3 mm 2 m/s 755 mmHg 78%
20:00 +21°C° 0.3 mm 2 m/s 755 mmHg 87%
21:00 +20°C° 0.6 mm 2 m/s 755 mmHg 90%
22:00 +20°C° 0.6 mm 2 m/s 755 mmHg 92%
23:00 +19°C° 0.6 mm 2 m/s 755 mmHg 95%
Mostrar mais

Necessitamos do seu Consentimento

A Meteoprog e os seus Fornecedores de Serviços podem armazenar e aceder a dados pessoais como cookies, identificadores do dispositivo ou outras tecnologias semelhantes existentes no seu dispositivo e processar estes dados para personalizar conteúdos e anúncios, assim como funcionalidades nas redes sociais e análise de tráfego.

  • Armazenar e/ou aceder a informações no seu dispositivo

    Os cookies, identificadores do dispositivo ou outras informações podem ser armazenados ou acedidos no seu dispositivo, para os fins acima indicados.

  • Anúncios e conteúdos personalizados, medição de anúncios e conteúdos, dados sobre o público-alvo e desenvolvimento de produtos

    Os anúncios e os conteúdos podem ser personalizados com base num perfil. Podem ser adicionados dados adicionais para uma maior personalização dos anúncios e dos conteúdos. A eficácia dos anúncios e dos conteúdos pode ser medida. Podem ser obtidas informações sobre o público que visualizou os anúncios e os conteúdos. Estes dados podem ser usados para desenvolver ou melhorar sistemas, softwares ou a experiência do utilizador.

Ao clicar em "Eu concordo”, permitirá o uso de cookies, identificadores do dispositivo e web beacons mencionados ou outras tecnologias semelhantes. As configurações do navegador do seu dispositivo podem ser alteradas.

Para certos fins, podem ser invocados interesses legítimos ao invés de consentimento. Pode ler mais informação sobre este assunto na nossa Política de Privacidade e Cookies.